KOSEN 1
1 49402U 21102H   25326.60313999  .00008792  00000-0  37416-3 0  9993
2 49402  97.3497   7.9169 0013911 211.3542 148.6866 15.23145404222537
HO-113
1 50466U 21131B   25326.86201316  .00000648  00000-0  21491-3 0  9992
2 50466  98.5065  55.3833 0004099  13.7482 346.3818 14.41072640205391
SNUGLITE 2
1 52899U 22065F   25326.36363410  .00001545  00000-0  30565-3 0  9999
2 52899  98.1918 107.0143 0006664 319.7897  40.2811 14.63752215180734
UmKA 1 (RS40S)
1 57172U 23091G   25326.76859037  .00007378  00000-0  36741-3 0  9999
2 57172  97.5367  21.3230 0014987 116.2704 244.0071 15.17782591132664
CubeBel-2 (EU11S)
1 57175U 23091K   25326.75604676  .00011469  00000-0  48509-3 0  9999
2 57175  97.5366  23.6243 0012388 118.9670 241.2810 15.23302776132816
SONATE-2
1 59112U 24043Q   25326.37149263  .00030058  00000-0  66784-3 0  9994
2 59112  97.5329 101.8886 0008759 237.1998 122.8406 15.43601536 95837
MO-122
1 60209U 24125G   25326.52103911  .00029398  00000-0  63078-3 0  9999
2 60209  97.2541 176.9013 0013535 259.1604 100.8121 15.44579557 77489
GRBBeta
1 60237U 24128C   25326.21585153  .00005651  00000-0  40255-3 0  9999
2 60237  61.9900 221.3375 0056998  92.4734 268.2885 15.04477582 75109
Curium One
1 60242U 24128H   25326.77881042  .00008493  00000-0  53687-3 0  9992
2 60242  61.9797 214.7074 0056777  89.5460 271.2139 15.08391076 75270
ROBUSTA-3A
1 60243U 24128J   25326.77391762  .00009181  00000-0  58882-3 0  9995
2 60243  61.9865 216.1723 0056602  86.9694 273.7874 15.07794232 75252
CatSat
1 60246U 24125J   25326.52533971  .00034213  00000-0  87913-3 0  9999
2 60246  97.2344 174.1522 0033710 218.7433 141.1395 15.38620612 75418
HYPERVIEW-1G (RS66S)
1 61772U 24199AP  25326.88148190  .00036442  00000-0  75158-3 0  9993
2 61772  97.3226 196.0970 0009660 325.6353  34.4270 15.45751289102543
AO-123
1 61781U 24199AY  25326.87711980  .00008924  00000-0  29612-3 0  9993
2 61781  97.3262 192.5506 0014183 334.2902  25.7633 15.31374664102304
ZIMSAT 2
1 61783U 24199BA  25326.89210284  .00135088  00000-0  13642-2 0  9995
2 61783  97.3131 198.9980 0005283 328.3604  31.7338 15.64890703105890
HADES-R (SO-124)
1 62690U 25009CK  25326.17512529  .00135723  00000-0  22346-2 0  9999
2 62690  97.3917  48.1201 0002743 237.6880 122.4107 15.51848238 47583
HYDRA-T
1 62692U 25009CM  25326.17257261  .00147698  00000-0  23308-2 0  9993
2 62692  97.3913  48.2751 0002518 236.6461 123.4552 15.52991066 47591
JINJUSat 1B
1 63210U 25052A   25326.65745402  .00016224  00000-0  63677-3 0  9994
2 63210  97.4205 218.9511 0006042  91.2173 268.9757 15.25786836 38526
NUSHSAT 1
1 63211U 25052B   25326.66559861  .00017939  00000-0  68469-3 0  9996
2 63211  97.4194 219.0549 0006004  92.7274 267.4652 15.26696735 38531
TEVEL2-4
1 63213U 25052D   25326.65811220  .00017283  00000-0  67199-3 0  9998
2 63213  97.4108 218.6404 0004902 102.1109 258.0679 15.26092628 38526
TEVEL2-5
1 63214U 25052E   25326.66265934  .00016970  00000-0  66117-3 0  9996
2 63214  97.4110 218.6356 0004957 103.1105 257.0687 15.26029139 38528
TEVEL2-6
1 63215U 25052F   25326.66934289  .00016874  00000-0  65838-3 0  9995
2 63215  97.4109 218.6309 0004999 103.3852 256.7944 15.25981774 38525
TEVEL2-1
1 63217U 25052H   25326.64228178  .00016746  00000-0  65950-3 0  9991
2 63217  97.4086 218.4318 0004855 111.8815 248.2940 15.25672511 38510
TEVEL2-3
1 63218U 25052J   25326.64174687  .00016669  00000-0  65613-3 0  9997
2 63218  97.4086 218.4355 0004872 112.8711 247.3042 15.25690390 38515
TEVEL2-2
1 63219U 25052K   25326.24954092  .00021148  00000-0  83191-3 0  9999
2 63219  97.4085 218.0426 0004756 113.6305 246.5433 15.25662446 38458
TEVEL2-9
1 63237U 25052AD  25326.65236948  .00016030  00000-0  65885-3 0  9991
2 63237  97.4149 218.1761 0008081 137.6697 222.5165 15.24229272 38481
TEVEL2-7
1 63238U 25052AE  25326.66439975  .00015400  00000-0  63569-3 0  9995
2 63238  97.4153 218.1657 0008109 137.6561 222.5303 15.24093003 38487
TEVEL2-8
1 63239U 25052AF  25326.66968868  .00015146  00000-0  62578-3 0  9990
2 63239  97.4153 218.1562 0008108 137.9719 222.2141 15.24066166 38487
HYDRA-W
1 63490U 25052BL  25326.68292976  .00052970  00000-0  14107-2 0  9991
2 63490  97.4079 220.2297 0010460 123.5708 236.6537 15.37958290 38632
HADES-ICM (SO-125)
1 63492U 25052BN  25326.65491411  .00045662  00000-0  12811-2 0  9995
2 63492  97.4086 219.9840 0010425 128.1114 232.1071 15.36378328 38613
Dragonfly
1 65729U 98067XH  25326.15547269  .00138289  00000-0  13514-2 0  9993
2 65729  51.6280 240.5876 0005972 164.4635 195.6544 15.65189622  9937
RSP-03
1 65732U 98067XL  25325.99512304  .00095050  00000-0  10108-2 0  9994
2 65732  51.6289 241.7695 0006845 140.8294 219.3197 15.63220415  9911
GHS-01
1 65733U 98067XM  25326.13378298  .00162997  00000-0  14989-2 0  9990
2 65733  51.6298 240.4465 0006509 162.1598 197.9628 15.66611774  9942
BOTAN
1 65942U 98067XP  25326.16005862  .00099025  00000-0  12728-2 0  9999
2 65942  51.6306 242.8705 0004684 117.1919 242.9551 15.58277645  6653
CEVROSAT1
1 98526U 25248E   25313.13142326  .00000000  00000-0  19360-3 0    02
2 98526  45.4084 218.4764 0001315 254.8982 242.1062 15.17981583    02
